[[{"header":{"parameterUnit":"m.s-1","parameterCategory":1,"la1":30.2991,"la2":30.254,"lo1":-89.0895,"lo2":-89.0444,"dy":0.0017,"dx":0.0017,"nx":28,"ny":28,"refTime":"2023-08-04T21:00:00:Z","depth":0,"parameterNumber":2,"parameterNumberName":"U-component_of_WINDS"},"data":[0,0,0,0,0,0,0,0,0,0,0,0,0,0,0,0,0,0,0,0,0,0,0,0,0,0,0,0,0,0,0,0,0,0,0,0,0,0,0,0,0,0,0,0,0,0,0,0,0,0,0,0,0,0,0,0,0,0,3.6039,3.6039,0,3.6087,3.6087,3.6088,3.6066,3.6065,3.6064,3.6063,3.6114,3.6117,3.6119,0,0,0,0,0,0,0,0,0,0,0,0,0,3.5932,3.5934,3.6039,3.6039,3.604,3.6087,3.6087,3.6088,3.6066,3.6065,3.6064,3.6062,3.6114,3.6117,3.612,0,0,0,0,0,0,0,0,0,0,0,0,0,3.5979,3.5935,3.6039,3.6035,3.6035,3.6086,3.6087,3.6088,3.6067,3.6065,3.6063,3.6061,3.6113,3.6116,3.612,3.6179,0,0,3.6131,3.6133,0,0,0,0,0,0,0,0,3.5976,3.5983,3.6035,3.6035,3.6035,3.6069,3.6069,3.6119,3.6067,3.6055,3.6063,3.6061,3.6101,3.6105,3.6118,3.6181,3.6184,3.6132,3.6134,3.6136,3.6137,0,0,0,0,0,0,0,3.5973,3.5981,3.6058,3.6035,3.6036,3.6032,3.6036,3.6078,3.6087,3.6056,3.6054,3.606,3.6101,3.6115,3.612,3.6184,3.6132,3.6135,3.6137,3.6139,3.6301,3.6303,0,0,0,0,0,0,3.597,3.5978,3.6056,3.6059,3.6001,3.6035,3.604,3.606,3.6087,3.6089,3.6062,3.6059,3.6109,3.6115,3.6121,3.6194,3.6136,3.6139,3.6141,3.6299,3.6301,3.6303,0,0,0,0,0,0,3.5967,3.5977,3.6054,3.6018,3.6028,3.6039,3.6061,3.6062,3.6076,3.6091,3.6093,3.6074,3.6108,3.6116,3.6165,3.6195,3.6141,3.6144,3.6296,3.63,3.6302,3.6338,0,0,0,0,0,0,3.5964,3.5976,3.5998,3.6019,3.603,3.6096,3.6063,3.6064,3.6082,3.6079,3.6104,3.6106,3.6107,3.616,3.6169,3.6199,3.6147,3.6294,3.6298,3.6301,3.6334,3.6342,3.6349,0,0,0,0,0,3.5961,3.6006,3.5999,3.6008,3.6057,3.6098,3.6104,3.6104,3.6084,3.6107,3.6117,3.6105,3.619,3.6165,3.6175,3.6207,3.6292,3.6297,3.6301,3.6331,3.6341,3.6349,0,0,0,0,0,0,3.5988,3.6008,3.6001,3.6054,3.6075,3.6094,3.6123,3.6114,3.6141,3.6137,3.6137,3.6143,3.6194,3.6205,3.6177,3.6267,3.6238,3.6245,3.6258,3.6267,3.6274,3.627,3.615,0,0,0,0,0,3.6,3.6031,3.6047,3.6093,3.6104,3.6111,3.6129,3.6128,3.6149,3.6158,3.6171,3.6194,3.6226,3.6247,3.6277,3.6336,3.6342,3.6363,3.637,3.6376,3.6382,3.6417,3.6427,3.6319,3.6319,3.6319,0,0,3.6026,3.6041,3.606,3.6099,3.6114,3.6148,3.6119,3.6155,3.618,3.6164,3.6211,3.6222,3.6247,3.6302,3.6327,3.6313,3.6414,3.6382,3.6386,3.639,3.6422,3.6433,3.6442,3.6322,3.6321,3.6321,0,0,3.609,3.6103,3.6144,3.616,3.6184,3.6189,3.6199,3.6221,3.6227,3.6275,3.6264,3.6294,3.6348,3.6367,3.6384,3.6457,3.6448,3.6467,3.6505,3.6538,3.6547,3.6554,3.6582,3.6592,3.6473,3.6473,3.6473,0,3.6119,3.6167,3.6166,3.6203,3.6221,3.6208,3.625,3.6266,3.6299,3.6312,3.6296,3.6365,3.6381,3.6441,3.6459,3.6472,3.6485,3.6464,3.6545,3.6553,3.656,3.6586,3.6597,3.6475,3.6475,3.6475,3.6474,0,3.6203,3.6237,3.6267,3.6299,3.632,3.636,3.6365,3.6388,3.6385,3.6392,3.6442,3.646,3.6495,3.6509,3.6506,3.6569,3.656,3.6545,3.6516,3.6573,3.6598,3.6608,3.6478,3.6478,3.6477,3.6476,0,0,3.6285,3.6317,3.6328,3.6343,3.6369,3.6396,3.6436,3.6469,3.6489,3.6512,3.6547,3.6594,3.658,3.6599,3.6599,3.6628,3.6687,3.6609,3.661,3.6624,3.676,3.6772,3.6784,3.668,3.6682,3.6684,3.6758,0,3.6353,3.6421,3.6421,3.6485,3.6518,3.6506,3.6541,3.6562,3.657,3.66,3.6609,3.6643,3.6622,3.6634,3.6662,3.6673,3.6714,3.6668,3.6714,3.6716,3.6709,3.6797,3.6809,3.6879,3.6768,3.6769,3.6771,0,3.644,3.6466,3.6533,3.6556,3.657,3.6601,3.6632,3.666,3.6684,3.6689,3.6711,3.6706,3.6748,3.6718,3.6777,3.6746,3.6765,3.6774,3.6776,3.6782,3.6747,3.6806,3.6901,3.6912,3.6786,3.6784,3.6783,0,3.6495,3.6548,3.6595,3.6608,3.6635,3.6658,3.6671,3.6693,3.6713,3.6741,3.6755,3.6787,3.6806,3.6832,3.6837,3.6814,3.6897,3.6866,3.6903,3.6903,3.6922,3.6921,3.7023,3.6932,3.6932,3.6932,3.6931,0,3.6571,3.6613,3.662,3.665,3.6697,3.6697,3.6745,3.6756,3.6776,3.6808,3.68,3.6831,3.6835,3.6867,3.6872,3.6921,3.6929,3.6935,3.6936,3.6937,3.6936,3.695,3.6946,3.6934,3.6934,3.6933,3.6933,0,3.6642,3.6648,3.6699,3.6721,3.6728,3.6762,3.6781,3.681,3.6818,3.6859,3.6869,3.6881,3.6919,3.6927,3.6971,3.6974,3.7034,3.7029,3.7026,3.7026,3.7063,3.706,3.7178,3.7195,3.7092,3.7093,3.7093,0,3.669,3.6722,3.6748,3.6768,3.6782,3.6816,3.6837,3.6839,3.6861,3.6892,3.6918,3.6954,3.6984,3.7046,3.706,3.7094,3.7092,3.7131,3.7097,3.7097,3.7094,3.7093,3.7097,3.7138,3.7139,3.714,3.714,0,3.6776,3.6778,3.6808,3.684,3.6865,3.6891,3.6915,3.6932,3.6938,3.6964,3.7003,3.7026,3.7072,3.7109,3.7144,3.7158,3.7152,3.7151,3.7161,3.7163,3.716,3.7164,3.7045,3.7148,3.7147,3.7147,3.7146,3.7146,3.6838,3.6867,3.689,3.6924,3.6943,3.6966,3.6994,3.7006,3.7037,3.7074,3.7074,3.7117,3.7142,3.7188,3.7204,3.7239,3.7227,3.7242,3.7246,3.725,3.7254,3.7154,3.7245,3.7245,3.7245,3.7244,3.7244,0,3.6926,3.694,3.6971,3.7005,3.7033,3.7022,3.7049,3.7073,3.711,3.7134,3.7163,3.7208,3.7245,3.7262,3.7299,3.7323,3.7321,3.7333,3.7332,3.7336,3.7262,3.725,3.7334,3.7334,3.7334,3.7334,3.7334,3.7334,3.6974,3.7023,3.7028,3.7086,3.71,3.7141,3.7157,3.7179,3.7198,3.7248,3.7279,3.7289,3.7311,3.7349,3.7383,3.7387,3.7402,3.7415,3.7418,3.735,3.734,3.7332,3.732,3.7418,3.7418,3.7489,3.749,3.749]},{"header":{"parameterUnit":"m.s-1","parameterCategory":1,"la1":30.2991,"la2":30.254,"lo1":-89.0895,"lo2":-89.0444,"dy":0.0017,"dx":0.0017,"nx":28,"ny":28,"refTime":"2023-08-04T21:00:00:Z","depth":0,"parameterNumber":3,"parameterNumberName":"V-component_of_WINDS"},"data":[0,0,0,0,0,0,0,0,0,0,0,0,0,0,0,0,0,0,0,0,0,0,0,0,0,0,0,0,0,0,0,0,0,0,0,0,0,0,0,0,0,0,0,0,0,0,0,0,0,0,0,0,0,0,0,0,0,0,-0.2523,-0.2523,0,-0.2534,-0.2535,-0.2535,-0.2552,-0.2552,-0.2553,-0.2553,-0.2564,-0.2564,-0.2564,0,0,0,0,0,0,0,0,0,0,0,0,0,-0.2516,-0.2517,-0.2523,-0.2523,-0.2523,-0.2534,-0.2535,-0.2535,-0.2552,-0.2552,-0.2553,-0.2553,-0.2564,-0.2564,-0.2564,0,0,0,0,0,0,0,0,0,0,0,0,0,-0.2523,-0.2517,-0.2523,-0.2533,-0.2534,-0.2534,-0.2535,-0.2535,-0.2552,-0.2552,-0.2553,-0.2553,-0.2564,-0.2564,-0.2564,-0.2555,0,0,-0.2564,-0.2564,0,0,0,0,0,0,0,0,-0.2522,-0.2523,-0.2531,-0.2532,-0.2534,-0.2542,-0.2536,-0.2542,-0.2552,-0.2545,-0.2553,-0.2554,-0.2557,-0.2557,-0.2558,-0.2556,-0.2556,-0.2564,-0.2564,-0.2564,-0.2564,0,0,0,0,0,0,0,-0.2522,-0.2523,-0.2527,-0.2532,-0.2533,-0.2537,-0.2539,-0.2538,-0.2548,-0.2546,-0.2547,-0.2548,-0.2557,-0.2558,-0.2559,-0.2556,-0.2564,-0.2564,-0.2564,-0.2564,-0.2549,-0.2548,0,0,0,0,0,0,-0.252,-0.2522,-0.2527,-0.2528,-0.2529,-0.2537,-0.2539,-0.2539,-0.2548,-0.255,-0.2548,-0.2549,-0.2558,-0.2559,-0.2559,-0.255,-0.2564,-0.2564,-0.2564,-0.2549,-0.2548,-0.2548,0,0,0,0,0,0,-0.252,-0.252,-0.2527,-0.2525,-0.2526,-0.2537,-0.2537,-0.2539,-0.254,-0.255,-0.2552,-0.2547,-0.2558,-0.2559,-0.2557,-0.2551,-0.2564,-0.2564,-0.255,-0.2549,-0.2548,-0.2531,0,0,0,0,0,0,-0.2519,-0.252,-0.2516,-0.2525,-0.2526,-0.2523,-0.2537,-0.2539,-0.254,-0.2542,-0.2549,-0.2551,-0.2559,-0.2556,-0.2557,-0.2551,-0.2564,-0.255,-0.2549,-0.2548,-0.2532,-0.253,-0.2528,0,0,0,0,0,-0.2519,-0.2511,-0.2516,-0.2516,-0.2522,-0.2523,-0.2524,-0.2533,-0.254,-0.2536,-0.2543,-0.2551,-0.2551,-0.2556,-0.2556,-0.2551,-0.255,-0.2549,-0.2549,-0.2533,-0.2531,-0.2528,0,0,0,0,0,0,-0.25,-0.2512,-0.2518,-0.2512,-0.2516,-0.2526,-0.2522,-0.2529,-0.2532,-0.2533,-0.2545,-0.2546,-0.2542,-0.2546,-0.2551,-0.2543,-0.2552,-0.2551,-0.2541,-0.2538,-0.2536,-0.2535,-0.2564,0,0,0,0,0,-0.2495,-0.2495,-0.2505,-0.2499,-0.2501,-0.2511,-0.2512,-0.2519,-0.2524,-0.2525,-0.2532,-0.2536,-0.2538,-0.2538,-0.254,-0.2533,-0.2536,-0.253,-0.2528,-0.2526,-0.2525,-0.2523,-0.2521,-0.2545,-0.2545,-0.2545,0,0,-0.2485,-0.2492,-0.2491,-0.2495,-0.25,-0.25,-0.2512,-0.2511,-0.2511,-0.2525,-0.2523,-0.2528,-0.2534,-0.253,-0.2528,-0.2533,-0.2519,-0.2525,-0.2523,-0.2523,-0.2522,-0.252,-0.2518,-0.2544,-0.2544,-0.2544,0,0,-0.2467,-0.2471,-0.2467,-0.2472,-0.2478,-0.2485,-0.2484,-0.2493,-0.2497,-0.2495,-0.2506,-0.2507,-0.2508,-0.2513,-0.2515,-0.25,-0.2508,-0.2501,-0.2489,-0.2488,-0.2486,-0.2484,-0.248,-0.2478,-0.25,-0.2499,-0.2499,0,-0.2453,-0.2453,-0.2464,-0.2463,-0.2465,-0.2478,-0.2475,-0.2479,-0.2485,-0.2487,-0.2492,-0.2496,-0.25,-0.2498,-0.2495,-0.2496,-0.2496,-0.2499,-0.2485,-0.2484,-0.2482,-0.2478,-0.2477,-0.2499,-0.2499,-0.2499,-0.2499,0,-0.2437,-0.2437,-0.2433,-0.244,-0.2442,-0.2439,-0.245,-0.2451,-0.2458,-0.2465,-0.2464,-0.247,-0.2474,-0.2474,-0.2481,-0.2473,-0.2476,-0.2483,-0.2493,-0.2479,-0.2476,-0.2474,-0.2497,-0.2498,-0.2498,-0.2498,0,0,-0.2406,-0.242,-0.2418,-0.2422,-0.2432,-0.2432,-0.2431,-0.2435,-0.2436,-0.244,-0.244,-0.2442,-0.2449,-0.2452,-0.2459,-0.2458,-0.2447,-0.2465,-0.2466,-0.2462,-0.2441,-0.2435,-0.2433,-0.2453,-0.2452,-0.2452,-0.244,0,-0.239,-0.2388,-0.2399,-0.2394,-0.2395,-0.2409,-0.2408,-0.2414,-0.242,-0.2422,-0.243,-0.2431,-0.244,-0.2442,-0.2441,-0.2449,-0.2443,-0.245,-0.2453,-0.2453,-0.2451,-0.2431,-0.2426,-0.2414,-0.2439,-0.2439,-0.2439,0,-0.237,-0.2375,-0.2371,-0.2382,-0.2382,-0.2381,-0.2387,-0.2389,-0.2396,-0.2401,-0.2405,-0.2414,-0.2414,-0.2423,-0.2424,-0.2428,-0.2431,-0.2435,-0.2434,-0.2435,-0.2445,-0.2432,-0.241,-0.2409,-0.2436,-0.2436,-0.2437,0,-0.2349,-0.2354,-0.2353,-0.2356,-0.2368,-0.2367,-0.2372,-0.238,-0.2383,-0.2388,-0.239,-0.2394,-0.2397,-0.2401,-0.2411,-0.2417,-0.2411,-0.2421,-0.2416,-0.2416,-0.2414,-0.2414,-0.2393,-0.2415,-0.2415,-0.2415,-0.2415,0,-0.233,-0.2327,-0.2344,-0.2343,-0.2341,-0.2353,-0.2351,-0.2357,-0.2364,-0.2365,-0.2377,-0.2378,-0.2392,-0.2394,-0.2403,-0.2403,-0.2404,-0.2408,-0.241,-0.2407,-0.2407,-0.2409,-0.241,-0.2415,-0.2415,-0.2415,-0.2415,0,-0.2306,-0.2316,-0.2316,-0.2328,-0.2331,-0.2329,-0.234,-0.234,-0.2348,-0.2349,-0.2351,-0.2363,-0.2367,-0.2378,-0.2384,-0.239,-0.2388,-0.2392,-0.2386,-0.2387,-0.2382,-0.2382,-0.2361,-0.236,-0.2382,-0.2382,-0.2382,0,-0.2293,-0.2291,-0.2304,-0.2306,-0.231,-0.2313,-0.2316,-0.2329,-0.2331,-0.2341,-0.234,-0.2345,-0.2349,-0.2355,-0.2365,-0.237,-0.2375,-0.2367,-0.2376,-0.2373,-0.2376,-0.2376,-0.2376,-0.2365,-0.2365,-0.2365,-0.2365,0,-0.2269,-0.2275,-0.2279,-0.2285,-0.2289,-0.2294,-0.23,-0.2301,-0.2315,-0.2318,-0.2322,-0.2326,-0.2333,-0.2338,-0.2346,-0.2351,-0.2361,-0.2362,-0.2361,-0.2358,-0.2355,-0.2357,-0.2381,-0.2362,-0.2362,-0.2363,-0.2363,-0.2363,-0.2251,-0.2251,-0.226,-0.2264,-0.227,-0.2276,-0.2277,-0.2286,-0.229,-0.2297,-0.2304,-0.2308,-0.2317,-0.2328,-0.2333,-0.2337,-0.2342,-0.234,-0.234,-0.234,-0.2339,-0.2354,-0.2338,-0.2338,-0.2339,-0.2339,-0.2339,0,-0.2229,-0.2236,-0.224,-0.2248,-0.2252,-0.2261,-0.2268,-0.2271,-0.2274,-0.2282,-0.2287,-0.2293,-0.2298,-0.2309,-0.2316,-0.2317,-0.2321,-0.2318,-0.2318,-0.2319,-0.2334,-0.2334,-0.2314,-0.2314,-0.2314,-0.2314,-0.2314,-0.2314,-0.2218,-0.2218,-0.2225,-0.223,-0.2237,-0.2241,-0.2245,-0.225,-0.2257,-0.2263,-0.2268,-0.2275,-0.2284,-0.2292,-0.2297,-0.2301,-0.2303,-0.2298,-0.2303,-0.2316,-0.2318,-0.232,-0.2321,-0.2299,-0.2299,-0.2288,-0.2288,-0.2288]}]]